When you browse on this site, cookies collect data to enhance your experience and personalize the content and advertising you see.
Visit our Privacy Policy to learn more. By continuing to use the site, you agree to this use of cookies and data.
  • In Denmark
  • List of Countries
  • For 7 days
  • Water Temperature
  • Satellite Maps
  • Weather Map
  • Weather Widgets
  • user-avatar
    Login

    Hourly Weather Belfast

    Today, 22 July, Monday

    Time Temperature Precipitation Wind Pressure Humidity
    00:00 +18°C° 0 mm 9 mps 754 mmHg 96%
    01:00 +18°C° 0 mm 8 mps 754 mmHg 95%
    02:00 +18°C° 0 mm 8 mps 755 mmHg 94%
    03:00 +18°C° 0 mm 8 mps 755 mmHg 93%
    04:00 +18°C° 0 mm 8 mps 755 mmHg 92%
    05:00 +18°C° 0 mm 7 mps 755 mmHg 91%
    06:00 +18°C° 0 mm 7 mps 756 mmHg 89%
    07:00 +18°C° 0 mm 8 mps 756 mmHg 87%
    08:00 +20°C° 0 mm 8 mps 757 mmHg 84%
    09:00 +20°C° 0 mm 8 mps 757 mmHg 82%
    10:00 +21°C° 0 mm 8 mps 757 mmHg 81%
    11:00 +21°C° 0 mm 8 mps 758 mmHg 80%
    12:00 +21°C° 0 mm 8 mps 758 mmHg 80%
    13:00 +22°C° 0 mm 7 mps 758 mmHg 79%
    14:00 +22°C° 0 mm 7 mps 759 mmHg 78%
    15:00 +23°C° 0 mm 6 mps 759 mmHg 77%
    16:00 +23°C° 0 mm 5 mps 759 mmHg 78%
    17:00 +23°C° 0 mm 4 mps 759 mmHg 80%
    18:00 +23°C° 0 mm 4 mps 759 mmHg 82%
    19:00 +22°C° 0 mm 3 mps 759 mmHg 86%
    20:00 +21°C° 0 mm 3 mps 759 mmHg 90%
    21:00 +19°C° 0 mm 3 mps 760 mmHg 93%
    22:00 +19°C° 0 mm 3 mps 760 mmHg 94%
    23:00 +18°C° 0 mm 3 mps 760 mmHg 95%

    Tomorrow, 23 July, Tuesday

    Time Temperature Precipitation Wind Pressure Humidity
    00:00 +18°C° 0 mm 3 mps 760 mmHg 96%
    01:00 +17°C° 0 mm 3 mps 759 mmHg 96%
    02:00 +17°C° 0 mm 3 mps 759 mmHg 97%
    03:00 +16°C° 0 mm 3 mps 759 mmHg 97%
    04:00 +16°C° 0 mm 3 mps 759 mmHg 97%
    05:00 +17°C° 0 mm 3 mps 759 mmHg 96%
    06:00 +17°C° 0 mm 3 mps 759 mmHg 95%
    07:00 +18°C° 0 mm 4 mps 759 mmHg 90%
    08:00 +19°C° 0 mm 5 mps 759 mmHg 85%
    09:00 +21°C° 0 mm 5 mps 759 mmHg 80%
    10:00 +22°C° 0 mm 5 mps 759 mmHg 78%
    11:00 +22°C° 0 mm 5 mps 759 mmHg 76%
    12:00 +23°C° 0 mm 5 mps 759 mmHg 74%
    13:00 +23°C° 0 mm 5 mps 759 mmHg 74%
    14:00 +23°C° 0 mm 5 mps 758 mmHg 74%
    15:00 +23°C° 0 mm 5 mps 758 mmHg 73%
    16:00 +22°C° 0 mm 5 mps 757 mmHg 76%
    17:00 +22°C° 0 mm 5 mps 757 mmHg 79%
    18:00 +21°C° 0 mm 5 mps 756 mmHg 82%
    19:00 +20°C° 0 mm 4 mps 756 mmHg 86%
    20:00 +18°C° 0 mm 3 mps 756 mmHg 90%
    21:00 +17°C° 0 mm 3 mps 755 mmHg 94%
    22:00 +17°C° 0.4 mm 3 mps 755 mmHg 93%
    23:00 +18°C° 0.4 mm 2 mps 754 mmHg 92%

    Day after tomorrow, 24 July, Wednesday

    Time Temperature Precipitation Wind Pressure Humidity
    00:00 +18°C° 0.4 mm 2 mps 754 mmHg 91%
    01:00 +17°C° 0.2 mm 2 mps 754 mmHg 93%
    02:00 +17°C° 0.2 mm 3 mps 753 mmHg 95%
    03:00 +16°C° 0.2 mm 3 mps 753 mmHg 96%
    04:00 +17°C° 0 mm 2 mps 753 mmHg 96%
    05:00 +17°C° 0 mm 2 mps 753 mmHg 96%
    06:00 +17°C° 0 mm 2 mps 753 mmHg 96%
    07:00 +18°C° 0 mm 2 mps 753 mmHg 92%
    08:00 +19°C° 0 mm 3 mps 754 mmHg 88%
    09:00 +20°C° 0 mm 4 mps 754 mmHg 85%
    10:00 +21°C° 0 mm 4 mps 754 mmHg 82%
    11:00 +21°C° 0 mm 4 mps 754 mmHg 79%
    12:00 +22°C° 0 mm 4 mps 754 mmHg 77%
    13:00 +22°C° 0.1 mm 4 mps 754 mmHg 76%
    14:00 +22°C° 0.1 mm 4 mps 754 mmHg 76%
    15:00 +23°C° 0.1 mm 4 mps 754 mmHg 75%
    16:00 +22°C° 0.1 mm 4 mps 754 mmHg 79%
    17:00 +21°C° 0.1 mm 4 mps 754 mmHg 82%
    18:00 +20°C° 0.1 mm 4 mps 754 mmHg 85%
    19:00 +19°C° 0 mm 4 mps 754 mmHg 86%
    20:00 +18°C° 0 mm 3 mps 754 mmHg 87%
    21:00 +17°C° 0 mm 3 mps 754 mmHg 88%
    22:00 +17°C° 0 mm 3 mps 754 mmHg 90%
    23:00 +16°C° 0 mm 3 mps 754 mmHg 91%

    25 July, Thursday

    Time Temperature Precipitation Wind Pressure Humidity
    00:00 +16°C° 0 mm 3 mps 754 mmHg 93%
    01:00 +16°C° 0.2 mm 3 mps 754 mmHg 95%
    02:00 +17°C° 0.2 mm 4 mps 753 mmHg 96%
    03:00 +17°C° 0.2 mm 4 mps 753 mmHg 98%
    04:00 +17°C° 0.4 mm 4 mps 753 mmHg 97%
    05:00 +17°C° 0.4 mm 5 mps 752 mmHg 97%
    06:00 +17°C° 0.4 mm 5 mps 752 mmHg 96%
    07:00 +19°C° 0 mm 5 mps 752 mmHg 93%
    08:00 +19°C° 0 mm 4 mps 752 mmHg 90%
    09:00 +20°C° 0 mm 4 mps 752 mmHg 86%
    10:00 +20°C° 0 mm 4 mps 752 mmHg 85%
    11:00 +20°C° 0 mm 4 mps 751 mmHg 83%
    12:00 +21°C° 0 mm 4 mps 751 mmHg 82%
    13:00 +21°C° 0 mm 5 mps 751 mmHg 81%
    14:00 +21°C° 0 mm 6 mps 750 mmHg 80%
    15:00 +21°C° 0 mm 7 mps 750 mmHg 79%
    16:00 +21°C° 0 mm 7 mps 750 mmHg 80%
    17:00 +20°C° 0 mm 6 mps 750 mmHg 82%
    18:00 +20°C° 0 mm 6 mps 750 mmHg 83%
    19:00 +19°C° 0 mm 6 mps 750 mmHg 85%
    20:00 +19°C° 0 mm 5 mps 751 mmHg 87%
    21:00 +17°C° 0 mm 5 mps 751 mmHg 89%
    22:00 +16°C° 0 mm 5 mps 751 mmHg 91%
    23:00 +16°C° 0 mm 5 mps 751 mmHg 93%

    26 July, Friday

    Time Temperature Precipitation Wind Pressure Humidity
    00:00 +15°C° 0 mm 5 mps 751 mmHg 96%
    01:00 +15°C° 0 mm 5 mps 751 mmHg 95%
    02:00 +15°C° 0 mm 5 mps 750 mmHg 95%
    03:00 +15°C° 0 mm 6 mps 750 mmHg 95%
    04:00 +15°C° 0 mm 6 mps 750 mmHg 94%
    05:00 +16°C° 0 mm 6 mps 750 mmHg 93%
    06:00 +16°C° 0 mm 6 mps 750 mmHg 92%
    07:00 +16°C° 0 mm 6 mps 750 mmHg 92%
    08:00 +17°C° 0 mm 6 mps 750 mmHg 91%
    09:00 +17°C° 0 mm 6 mps 750 mmHg 91%
    10:00 +19°C° 0.1 mm 6 mps 750 mmHg 89%
    11:00 +19°C° 0.1 mm 6 mps 750 mmHg 86%
    12:00 +20°C° 0.1 mm 6 mps 750 mmHg 84%
    13:00 +20°C° 0.2 mm 6 mps 750 mmHg 84%
    14:00 +21°C° 0.2 mm 6 mps 750 mmHg 84%
    15:00 +21°C° 0.2 mm 6 mps 750 mmHg 83%
    16:00 +20°C° 0.8 mm 5 mps 750 mmHg 87%
    17:00 +19°C° 0.8 mm 4 mps 750 mmHg 90%
    18:00 +19°C° 0.8 mm 3 mps 751 mmHg 94%
    19:00 +18°C° 1.3 mm 4 mps 751 mmHg 94%
    20:00 +16°C° 1.3 mm 5 mps 751 mmHg 95%
    21:00 +15°C° 1.3 mm 6 mps 752 mmHg 95%
    22:00 +14°C° 0.5 mm 6 mps 752 mmHg 95%
    23:00 +14°C° 0.5 mm 6 mps 753 mmHg 95%

    27 July, Saturday

    Time Temperature Precipitation Wind Pressure Humidity
    00:00 +13°C° 0.5 mm 6 mps 753 mmHg 95%
    01:00 +13°C° 0.3 mm 6 mps 753 mmHg 95%
    02:00 +11°C° 0.3 mm 6 mps 754 mmHg 95%
    03:00 +11°C° 0.3 mm 6 mps 754 mmHg 95%
    04:00 +12°C° 0.1 mm 5 mps 754 mmHg 94%
    05:00 +12°C° 0.1 mm 5 mps 755 mmHg 94%
    06:00 +12°C° 0.1 mm 5 mps 755 mmHg 93%
    07:00 +12°C° 0 mm 5 mps 756 mmHg 88%
    08:00 +13°C° 0 mm 4 mps 756 mmHg 83%
    09:00 +14°C° 0 mm 4 mps 757 mmHg 78%
    10:00 +15°C° 0.1 mm 4 mps 757 mmHg 75%
    11:00 +17°C° 0.1 mm 4 mps 757 mmHg 72%
    12:00 +17°C° 0.1 mm 4 mps 757 mmHg 69%
    13:00 +18°C° 0.1 mm 4 mps 758 mmHg 69%
    14:00 +18°C° 0.1 mm 4 mps 758 mmHg 68%
    15:00 +18°C° 0.1 mm 4 mps 758 mmHg 68%
    16:00 +18°C° 0.1 mm 3 mps 758 mmHg 70%
    17:00 +18°C° 0.1 mm 3 mps 758 mmHg 72%
    18:00 +18°C° 0.1 mm 2 mps 758 mmHg 74%
    19:00 +16°C° 0.1 mm 2 mps 758 mmHg 79%
    20:00 +14°C° 0.1 mm 1 mps 759 mmHg 84%
    21:00 +13°C° 0.1 mm 1 mps 759 mmHg 90%
    22:00 +12°C° 0 mm 1 mps 759 mmHg 90%
    23:00 +11°C° 0 mm 1 mps 759 mmHg 91%
    Show more